Regional Weather Roundup
Issued by NWS

Home | Current Version | Previous Version | Graphics & Text | Print | Product List | Glossary On
Versions: 1 2 3 4 5 6 7 8 9 10 11 12 13 14 15 16 17 18 19 20 21 22 23 24 25 26 27 28 29 30 31 32 33 34 35 36 37 38 39 40 41 42 43 44 45 46 47 48 49 50
000
ASUS43 KLSX 232307
RWRMO

WEATHER SUMMARY FOR MISSOURI
NATIONAL WEATHER SERVICE SPRINGFIELD MO
500 PM CST SUN NOV 23 2014

NOTE: "FAIR" INDICATES FEW OR NO CLOUDS BELOW 12,000 FEET WITH NO
       SIGNIFICANT WEATHER AND/OR OBSTRUCTIONS TO VISIBILITY.
       CURRENT SKY AND/OR WEATHER CONDITIONS ARE NOT AVAILABLE FOR
       CHILLICOTHE AND FARMINGTON.

MOZ001>031-035>038-043-044-053-054-240000-
...NORTHERN AND WESTERN MISSOURI...

CITY           SKY/WX    TMP DP  RH WIND       PRES   REMARKS
KANSAS CTY INT LGT RAIN  46  46 100 NW15      29.38R
KANSAS C DTWN  LGT RAIN  49  44  83 NW14G22   29.37R
ST JOSEPH      LGT RAIN  45  40  82 N25G36    29.41R
CHILLICOTHE      N/A     55  54  96 CALM      29.33F
KIRKSVILLE     CLOUDY    54  53  97 W3        29.32F FOG

$$
MOZ066>068-077>081-088>096-101>105-240000-
...SOUTHWEST MISSOURI...

CITY           SKY/WX    TMP DP  RH WIND       PRES   REMARKS
SPRINGFIELD    PTCLDY    56  53  90 E7        29.30F
JOPLIN         CLOUDY    57  56  96 NW8       29.30F

$$
MOZ032>034-039>042-045>050-055>058-069>072-240000-
...CENTRAL MISSOURI...

CITY           SKY/WX    TMP DP  RH WIND       PRES   REMARKS
COLUMBIA       LGT RAIN  54  53  97 S6        29.31F FOG
JEFFERSON CITY CLOUDY    54  53  97 CALM      29.32F
ROLLA          LGT RAIN  53  52  96 SW6       29.31S FOG
SEDALIA        CLOUDY    56  54  93 CALM      29.31F
WHITEMAN AFB   MOCLDY    54  54 100 SE2       29.29F FOG
OSAGE BEACH    CLOUDY    55  52  88 CALM      29.30F VSB 3/4

$$
MOZ051-052-059>065-240000-
...EAST CENTRAL MISSOURI...

CITY           SKY/WX    TMP DP  RH WIND       PRES   REMARKS
ST LOUIS INTL  LGT RAIN  55  53  93 SE6       29.31F FOG
SPIRIT OF STL  CLOUDY    54  53  97 CALM      29.30F
ST CHARLES     LGT RAIN  52  51  97 E7        29.30F FOG

$$
MOZ072>076-082>087-097>100-106>115-240000-
...SOUTH CENTRAL AND SOUTHEAST MISSOURI...

CITY           SKY/WX    TMP DP  RH WIND       PRES   REMARKS
CAPE GIRARDEAU RAIN      55  55 100 CALM      29.32F FOG
FARMINGTON     CLOUDY    54  54 100 SE3       29.33F
POPLAR BLUFF   LGT RAIN  56  54  93 CALM      29.31F FOG
WEST PLAINS    CLOUDY    56  54  93 S5        29.33F

$$



USA.gov is the U.S. government's official web portal to all federal, state and local government web resources and services.